ARIANE 44LP DEB, 26812

Orbit data source: Space-Track

ARIANE 44LP DEB, 26812 is space debris in HEO originally from a launch on Sun, 11 Dec 1988 UTC launched from the French Guiana (FRGUI). Debris objects in space refer to the collection of defunct objects orbiting the Earth. Examples of debris include non-operational satellites, rocket bodies, and fragments generated from explosions, collisions, or faulty payload assembly.

Loading next visibility...
Identifier
26812, 1988-109P
Orbit
HEO
Country
Flag of FRFR
Related business
Manufacturer
Unknown
Mission
Spacecraft
Bus & Motor
Unknown
Mass
Unknown
Launch date (UTC)
1988-12-11 (37 years ago)
Launch vehicle
Unknown
Launch site
French Guiana (FRGUI)
Object type
Payload
Rocket body
Debris
Shape & HBR
Unknown
Radar Cross Section
Medium (>0.1 m² and <1 m²)

Expand to show TLE details & history
Last TLE update: 17 hours ago

TLE from 17 hours ago
0 ARIANE 44LP DEB
1 26812U 88109P   25250.89408228 -.00000016  00000-0  00000-0 0  9998
2 26812   6.4964 266.5088 7012515  25.5625  34.4930  2.21681523223933
Epoch: 2025-09-07T21:27Z
TLE epoch observation values (Epoch: 2025-09-07T21:27:28.708Z)
Latitude
3.56574°
Longitude
103.88067°
Altitude
13,263.596 km
Speed
4.954 km/s
True Right ascension
03h 31m 49s
True Declination
3° 33' 29"
Sunlit
Object was in daylight at epoch
Visualization orbit readout
Latitude
Unknown
Longitude
Unknown
Altitude
Unknown
Speed
Unknown
Apparent Right ascension
Unknown
Apparent Declination
Unknown
Sunlit
N/A
Visualization observer readout
Local Sidereal Time
06:55:35
Azimuth
Unknown
Elevation
Unknown
Doppler factor
Unknown
Orbital elements
Apogee altitude
35,898.605 km
Perigee altitude
1,045.876 km
Semi-major axis
24,850.377 km
Eccentricity
0.70125
Inclination
6.4964°
RAAN
266.5088°
Arg. of periapsis
25.5625°
True anomaly
120.858°
Mean anomaly
34.493°
Eccentric anomaly
72.89442°
Mean motion
0.55404 °/min
Orbital period
649.77 mins
BSTAR
0
Loading maneuver chart data...
Computing Atmospheric mass density...
Loading historical data...
Loading historical data...
Loading historical data...
Loading historical data...
Loading historical data...
Loading historical data...
Loading historical data...

Documentation

Showing up to 5 results
|